STARLINK-35811 (66596 NORAD) Tracking and Keplerian Element Data

This shows tracking and keplerian element data for the satellite.

Feedback or suggestion? Click here.




ElementValue
Catalog66596
NameSTARLINK-35811
Epoch Orbit554
Epoch Day353.79938862
Epoch Year2025
RAAN152.0383
Inclination42.999
Eccentricity0.0002506
Argument of Perigee266.8739
Mean Anonmoly93.1831
Mean Motion15.40716586
Decay Rate0.00032856
L11 66596U 25270J 25353.79938862 .00032856 00000+0 78995-3 0 9992
L22 66596 42.9990 152.0383 0002506 266.8739 93.1831 15.40716586 5545



Live tracking and technical data element details for STARLINK-35811 (NORAD 66596). STARLINK-35811 can be tracked NOW for your location showing map with azimuth and elevation plus other details from your city location.







IsCatalogInMostPopularTable: catalog: 66596, numindb: 8
Update: records affected: 1



GetName: 66596 STARLINK-35811

Hit Count: updated at: Sat, 07 Feb 2026 08:29:25 GMT